FW8740 Weather Reports


Display with metric or nautical units.
time (UTC)temp
F
wind
direction
speed
MPH
gust
MPH
rain 1hr
in
rain 24hr
in
rain mn
in
humidity
%
barometer
mb
20260902081203 62 106 0.0 1.0 0.00 0.00 0.00 97 1022.5
20260902080658 62 110 0.0 1.0 0.00 0.00 0.00 97 1022.2
20260902080155 62 111 0.0 1.0 0.00 0.00 0.00 97 1022.2
20260902075655 62 109 0.0 2.0 0.00 0.00 0.00 97 1022.3
20260902075150 62 121 1.0 2.0 0.00 0.00 0.00 97 1022.0
20260902074645 62 113 1.0 1.0 0.00 0.00 0.00 97 1022.1
20260902074141 62 117 1.0 1.0 0.00 0.00 0.00 97 1022.3
20260902073636 62 108 0.0 1.0 0.00 0.00 0.00 97 1022.2
20260902073132 62 110 1.0 1.0 0.00 0.00 0.00 97 1022.2
20260902072628 62 109 0.0 1.0 0.00 0.00 0.00 97 1022.0
20260902072124 62 108 0.0 1.0 0.00 0.00 0.00 97 1022.2
20260902071619 62 107 0.0 1.0 0.00 0.00 0.00 97 1022.1
20260902071115 62 113 0.0 0.0 0.00 0.00 0.00 97 1021.9
20260902070610 62 113 0.0 0.0 0.00 0.00 0.00 97 1021.9
20260902070105 62 108 0.0 1.0 0.00 0.00 0.00 97 1021.8
20260902065558 62 113 0.0 1.0 0.00 0.00 0.00 97 1022.0
20260902065054 62 108 0.0 1.0 0.00 0.00 0.00 97 1022.1
20260902064550 62 111 0.0 1.0 0.00 0.00 0.00 97 1022.2
20260902064045 62 105 0.0 1.0 0.00 0.00 0.00 97 1022.0
20260902063545 62 105 0.0 0.0 0.00 0.00 0.00 97 1022.2
20260902063040 62 103 0.0 1.0 0.00 0.00 0.00 97 1022.0
20260902062539 62 153 1.0 1.0 0.00 0.00 0.00 97 1022.3
20260902062035 62 108 0.0 2.0 0.00 0.00 0.00 97 1022.3
20260902061534 62 103 0.0 2.0 0.00 0.00 0.00 97 1022.2
20260902061030 62 109 1.0 1.0 0.00 0.00 0.00 97 1022.1
20260902060526 62 116 1.0 2.0 0.00 0.00 0.00 97 1022.2
20260902060022 62 120 0.0 1.0 0.00 0.00 0.00 97 1022.3
20260902055518 62 114 0.0 1.0 0.00 0.00 0.00 97 1022.5
20260902055014 62 109 0.0 1.0 0.00 0.00 0.00 96 1022.5
20260902054513 62 101 0.0 1.0 0.00 0.00 0.00 97 1022.4
20260902054009 62 109 0.0 1.0 0.00 0.00 0.00 96 1022.4
20260902053504 62 103 0.0 1.0 0.00 0.00 0.00 96 1022.5
20260902053004 62 117 1.0 1.0 0.00 0.00 0.00 96 1022.2
20260902052458 62 108 0.0 1.0 0.00 0.00 0.00 96 1022.2
20260902051954 62 128 1.0 1.0 0.00 0.00 0.00 96 1022.2
20260902051453 62 102 0.0 0.0 0.00 0.00 0.00 96 1022.4
20260902050952 62 106 0.0 0.0 0.00 0.00 0.00 96 1022.3
20260902050447 62 130 1.0 1.0 0.00 0.00 0.00 96 1022.4
20260902045942 62 99 0.0 0.0 0.00 0.00 0.00 96 1022.3
20260902045438 62 111 0.0 0.0 0.00 0.00 0.00 96 1022.1
20260902044934 62 111 0.0 1.0 0.00 0.00 0.00 96 1022.1
20260902044429 62 108 0.0 2.0 0.00 0.00 0.00 96 1021.9
20260902043924 62 102 1.0 2.0 0.00 0.00 0.00 96 1022.0
20260902043414 63 127 1.0 1.0 0.00 0.00 0.00 96 1022.1
20260902042909 63 110 0.0 1.0 0.00 0.00 0.00 96 1021.9
20260902042408 63 122 1.0 1.0 0.00 0.00 0.00 96 1022.3
20260902041904 63 117 0.0 0.0 0.00 0.00 0.00 96 1022.3
20260902041403 62 112 1.0 2.0 0.00 0.00 0.00 96 1021.9
20260902040902 62 120 1.0 1.0 0.00 0.00 0.00 96 1021.8
20260902040358 62 114 1.0 2.0 0.00 0.00 0.00 96 1022.1
20260902035857 62 88 1.0 2.0 0.00 1.14 1.14 96 1021.8
20260902035352 63 125 0.0 1.0 0.00 1.14 1.14 96 1021.8
20260902034851 63 110 2.0 2.0 0.00 1.14 1.14 96 1021.6
20260902034346 63 106 0.0 2.0 0.00 1.14 1.14 96 1021.5
20260902033844 63 118 0.0 2.0 0.00 1.14 1.14 96 1021.8
20260902033339 63 111 1.0 2.0 0.00 1.14 1.14 96 1021.6
20260902032839 63 113 1.0 2.0 0.00 1.14 1.14 96 1021.6
20260902032339 63 154 2.0 3.0 0.00 1.14 1.14 96 1021.3
20260902031833 63 123 2.0 2.0 0.00 1.14 1.14 96 1021.3
20260902031330 63 100 1.0 2.0 0.00 1.14 1.14 96 1020.9
20260902030825 63 119 2.0 2.0 0.00 1.14 1.14 96 1021.2
20260902030319 63 149 1.0 3.0 0.00 1.14 1.14 96 1021.1
20260902025818 63 111 2.0 2.0 0.00 1.14 1.14 96 1021.3
20260902025314 63 96 1.0 2.0 0.00 1.14 1.14 96 1021.2
20260902024809 63 149 1.0 2.0 0.00 1.14 1.14 96 1021.0
20260902024304 63 144 2.0 3.0 0.00 1.14 1.14 96 1021.4
20260902023759 63 119 1.0 2.0 0.00 1.14 1.14 96 1021.3
20260902023255 63 128 2.0 2.0 0.00 1.14 1.14 96 1021.0
20260902022754 63 127 0.0 1.0 0.00 1.14 1.14 96 1021.3
20260902022250 63 113 2.0 2.0 0.00 1.14 1.14 96 1021.1
20260902021745 63 172 2.0 3.0 0.00 1.14 1.14 96 1020.9
20260902021245 63 105 1.0 2.0 0.00 1.14 1.14 96 1020.8
20260902020741 64 90 2.0 3.0 0.00 1.14 1.14 96 1020.7
20260902020237 64 122 2.0 3.0 0.00 1.14 1.14 96 1020.8
20260902015733 64 118 3.0 3.0 0.00 1.14 1.14 96 1020.7
20260902015229 64 104 1.0 2.0 0.00 1.14 1.14 96 1021.0
20260902014724 64 122 2.0 3.0 0.00 1.14 1.14 96 1020.4
20260902014220 64 120 0.0 3.0 0.00 1.14 1.14 96 1020.4
20260902013718 64 107 2.0 2.0 0.00 1.14 1.14 96 1020.3
20260902013215 64 99 2.0 3.0 0.00 1.14 1.14 96 1020.5
20260902012710 64 124 1.0 2.0 0.00 1.14 1.14 96 1020.4
20260902012206 64 124 2.0 3.0 0.00 1.14 1.14 96 1020.2
20260902011700 64 130 2.0 3.0 0.00 1.14 1.14 96 1020.2
20260902011155 64 116 2.0 3.0 0.00 1.14 1.14 96 1020.1
20260902010654 64 96 2.0 3.0 0.00 1.14 1.14 96 1020.1
20260902010150 64 90 2.0 5.0 0.00 1.14 1.14 96 1019.8
20260902005648 65 120 2.0 3.0 0.00 1.14 1.14 96 1019.9
20260902005144 64 117 2.0 3.0 0.00 1.14 1.14 96 1019.9
20260902004643 65 105 1.0 3.0 0.00 1.14 1.14 96 1019.8
20260902004139 65 80 2.0 3.0 0.00 1.14 1.14 96 1020.1
20260902003634 65 137 1.0 5.0 0.00 1.14 1.14 96 1020.0
20260902003129 65 118 1.0 2.0 0.00 1.14 1.14 96 1019.9
20260902002625 66 133 2.0 3.0 0.00 1.14 1.14 96 1019.7
20260902002119 65 109 0.0 2.0 0.00 1.14 1.14 96 1019.5
20260902001614 66 128 2.0 3.0 0.00 1.14 1.14 96 1019.1
20260902001109 66 118 3.0 6.0 0.00 1.14 1.14 96 1019.1
20260902000604 66 124 1.0 3.0 0.00 1.14 1.14 96 1019.1
20260902000100 66 121 2.0 3.0 0.00 1.14 1.14 96 1019.2
20260901235559 66 141 2.0 3.0 0.00 1.14 1.14 96 1019.1
20260901235055 66 122 2.0 3.0 0.00 1.14 1.14 96 1019.0
20260901234553 67 122 1.0 3.0 0.00 1.14 1.14 96 1019.5
20260901234049 67 121 1.0 5.0 0.00 1.14 1.14 96 1019.5
20260901233549 67 116 3.0 3.0 0.00 1.14 1.14 96 1019.4
20260901233045 67 148 0.0 2.0 0.00 1.14 1.14 96 1019.2
20260901232540 67 150 2.0 3.0 0.00 1.14 1.14 96 1019.3
20260901232035 68 131 2.0 5.0 0.00 1.14 1.14 96 1018.9
20260901231531 68 135 3.0 3.0 0.00 1.14 1.14 96 1018.8
20260901231028 69 116 2.0 5.0 0.00 1.14 1.14 96 1018.9
20260901230528 69 135 1.0 3.0 0.00 1.14 1.14 96 1018.9
20260901230023 70 122 1.0 3.0 0.00 1.14 1.14 96 1018.8
20260901225518 70 146 2.0 3.0 0.00 1.14 1.14 96 1018.7
20260901225012 70 124 1.0 3.0 0.00 1.14 1.14 96 1018.4
20260901224508 71 127 1.0 3.0 0.00 1.14 1.14 96 1018.4
20260901224004 71 97 1.0 2.0 0.00 1.14 1.14 96 1018.3
20260901223500 72 106 2.0 3.0 0.00 1.14 1.14 96 1018.4
20260901222955 72 144 1.0 3.0 0.00 1.14 1.14 96 1018.4
20260901222451 72 129 3.0 3.0 0.00 1.14 1.14 96 1018.0
20260901221947 73 149 2.0 3.0 0.00 1.14 1.14 96 1018.1
20260901221443 73 149 3.0 3.0 0.00 1.14 1.14 96 1018.0
20260901220943 74 127 1.0 2.0 0.00 1.14 1.14 96 1018.2
20260901220442 74 116 0.0 2.0 0.00 1.14 1.14 96 1018.1
20260901215941 74 141 1.0 2.0 0.00 1.14 1.14 96 1018.3
20260901215439 74 136 1.0 1.0 0.00 1.14 1.14 96 1018.2
20260901214939 74 132 0.0 1.0 0.00 1.14 1.14 96 1017.8
20260901214437 74 129 0.0 1.0 0.00 1.14 1.14 96 1018.2
20260901213932 75 130 0.0 1.0 0.00 1.14 1.14 96 1018.0
20260901213427 75 118 0.0 1.0 0.00 1.14 1.14 96 1018.1
20260901212926 75 103 0.0 0.0 0.00 1.14 1.14 96 1018.2
20260901212421 75 126 0.0 1.0 0.00 1.14 1.14 96 1018.0
20260901211918 75 144 1.0 1.0 0.00 1.14 1.14 95 1018.2
20260901211414 75 120 0.0 1.0 0.00 1.14 1.14 95 1018.0
20260901210909 75 118 0.0 1.0 0.00 1.14 1.14 95 1018.0
20260901210404 75 129 0.0 1.0 0.00 1.14 1.14 95 1017.9
20260901205901 76 121 0.0 1.0 0.00 1.14 1.14 95 1018.0
20260901205355 76 122 0.0 1.0 0.00 1.14 1.14 95 1018.0
20260901204850 76 114 0.0 1.0 0.00 1.14 1.14 95 1018.0
20260901204347 77 121 0.0 0.0 0.00 1.14 1.14 95 1018.1
20260901203846 77 119 0.0 0.0 0.00 1.14 1.14 95 1018.0
20260901203341 77 119 0.0 0.0 0.00 1.14 1.14 95 1017.9
20260901202836 76 121 0.0 1.0 0.00 1.14 1.14 95 1017.8
20260901202331 76 114 0.0 0.0 0.00 1.14 1.14 95 1017.8
20260901201827 76 116 0.0 1.0 0.00 1.14 1.14 95 1017.8
20260901201326 76 122 0.0 1.0 0.00 1.14 1.14 95 1018.1
20260901200820 76 111 0.0 1.0 0.00 1.14 1.14 95 1017.9
20260901200316 76 111 0.0 0.0 0.00 1.14 1.14 95 1018.0
20260901195814 76 114 0.0 1.0 0.00 1.14 1.14 95 1017.9
20260901195313 75 102 0.0 2.0 0.00 1.14 1.14 96 1017.9
20260901194809 75 106 2.0 5.0 0.00 1.14 1.14 96 1018.2
20260901194303 75 101 0.0 2.0 0.00 1.14 1.14 96 1018.0
20260901193800 77 86 0.0 1.0 0.00 1.14 1.14 97 1018.1
20260901193258 76 100 0.0 1.0 0.00 1.14 1.14 97 1018.1
20260901192753 75 113 0.0 1.0 0.00 1.14 1.14 97 1018.0
20260901192248 75 123 0.0 1.0 0.00 1.14 1.14 97 1017.9
20260901191744 74 109 1.0 2.0 0.00 1.14 1.14 98 1017.8
20260901191240 75 115 1.0 1.0 0.00 1.14 1.14 98 1018.1
20260901190736 74 93 0.0 2.0 0.00 1.14 1.14 98 1018.0
20260901190230 75 14 1.0 3.0 0.00 1.14 1.14 98 1018.2
20260901185728 75 126 0.0 1.0 0.00 1.14 1.14 98 1017.9
20260901185227 74 118 0.0 1.0 0.00 1.14 1.14 98 1017.9
20260901184723 75 102 0.0 3.0 0.00 1.14 1.14 98 1017.7
20260901184218 74 126 1.0 1.0 0.00 1.14 1.14 98 1018.0
20260901183714 74 117 0.0 0.0 0.00 1.14 1.14 98 1018.0
20260901183213 74 113 0.0 1.0 0.00 1.14 1.14 98 1018.2
20260901182710 74 171 0.0 0.0 0.00 1.14 1.14 98 1018.3
20260901182209 74 112 0.0 0.0 0.00 1.14 1.14 98 1018.1
20260901181704 73 113 0.0 1.0 0.00 1.14 1.14 98 1018.1
20260901181203 73 121 0.0 0.0 0.00 1.14 1.14 98 1018.1
20260901180657 73 129 1.0 1.0 0.00 1.14 1.14 98 1018.0
20260901180151 73 113 0.0 0.0 0.00 1.14 1.14 98 1018.2
20260901175651 73 114 0.0 0.0 0.00 1.14 1.14 98 1018.1
20260901175151 73 109 0.0 0.0 0.00 1.14 1.14 98 1018.1
20260901174646 72 99 0.0 0.0 0.00 1.14 1.14 98 1018.1
20260901174142 72 122 0.0 1.0 0.00 1.14 1.14 98 1018.0
20260901173637 73 316 0.0 0.0 0.00 1.14 1.14 98 1018.2
20260901173132 73 107 0.0 0.0 0.00 1.14 1.14 98 1018.3
20260901172628 72 120 0.0 0.0 0.00 1.14 1.14 98 1018.3
20260901172126 72 116 0.0 0.0 0.00 1.14 1.14 98 1018.3
20260901171626 72 124 0.0 0.0 0.00 1.14 1.14 98 1018.5
20260901171119 71 120 0.0 1.0 0.00 1.14 1.14 98 1018.1
20260901170619 71 133 0.0 1.0 0.00 1.14 1.14 98 1018.7
20260901170114 71 121 0.0 1.0 0.00 1.14 1.14 98 1018.5
20260901165613 71 101 0.0 0.0 0.00 1.14 1.14 98 1018.4
20260901165108 71 112 0.0 0.0 0.00 1.14 1.14 98 1018.1
20260901164604 71 127 0.0 0.0 0.00 1.14 1.14 98 1018.2
20260901164059 71 132 0.0 0.0 0.05 1.14 1.14 98 1018.2
20260901163554 71 132 0.0 0.0 0.05 1.14 1.14 98 1018.6
20260901163054 71 114 0.0 0.0 0.07 1.13 1.13 98 1018.8
20260901162549 71 112 0.0 0.0 0.07 1.13 1.13 98 1018.8
20260901162049 70 113 0.0 0.0 0.00 1.12 1.12 98 1018.8
20260901161547 71 105 0.0 0.0 0.00 1.12 1.12 98 1018.9
20260901161047 71 116 0.0 0.0 0.00 1.12 1.12 98 1018.9
20260901160543 71 121 0.0 0.0 0.00 1.12 1.12 98 1019.2
20260901160039 71 114 0.0 0.0 0.05 1.12 1.12 98 1019.3
20260901155537 70 98 0.0 0.0 0.12 1.12 1.12 98 1019.5
20260901155033 70 107 0.0 0.0 0.19 1.11 1.11 98 1019.4
20260901154533 70 116 0.0 0.0 0.17 1.10 1.10 98 1019.3
20260901154028 70 115 0.0 0.0 0.12 1.08 1.08 98 1019.5
20260901153523 70 115 0.0 0.0 0.12 1.07 1.07 98 1019.5
20260901153022 70 104 0.0 0.0 0.05 1.06 1.06 98 1019.6
20260901152517 70 114 0.0 0.0 0.07 1.05 1.05 98 1019.7
20260901152016 70 114 0.0 0.0 0.12 1.05 1.05 98 1020.0
20260901151512 70 106 0.0 0.0 0.05 1.04 1.04 98 1019.6
20260901151011 70 134 0.0 1.0 0.00 1.03 1.03 98 1019.4
20260901150509 70 137 0.0 1.0 0.00 1.03 1.03 98 1019.5
20260901150007 70 115 0.0 0.0 0.00 1.03 1.03 98 1019.2
20260901145501 70 119 0.0 1.0 0.07 1.03 1.03 98 1019.5
20260901145001 70 112 0.0 0.0 0.07 1.03 1.03 98 1019.6
20260901144456 70 112 0.0 0.0 0.07 1.02 1.02 98 1019.8
20260901143951 69 121 0.0 0.0 0.12 1.01 1.01 98 1019.5
20260901143448 69 114 0.0 0.0 0.17 1.01 1.01 98 1019.8
20260901142944 69 84 0.0 0.0 0.05 0.99 0.99 98 1019.4
20260901142443 69 149 0.0 0.0 0.00 0.98 0.98 98 1019.5
20260901141939 69 125 0.0 1.0 0.00 0.98 0.98 98 1019.6
20260901141438 69 119 0.0 1.0 0.24 0.98 0.98 98 1019.7
20260901140934 69 123 0.0 0.0 0.35 0.98 0.98 98 1020.0
20260901140431 69 92 0.0 1.0 0.05 0.93 0.93 98 1020.0
20260901135926 69 106 0.0 0.0 0.00 0.92 0.92 98 1019.9
20260901135421 69 119 0.0 0.0 0.00 0.92 0.92 98 1019.4
20260901134917 69 107 0.0 0.0 0.00 0.92 0.92 98 1019.5
20260901134413 69 106 0.0 0.0 0.00 0.92 0.92 98 1019.9
20260901133912 69 107 0.0 0.0 0.00 0.92 0.92 98 1019.5
20260901133406 69 117 0.0 0.0 0.00 0.92 0.92 98 1019.4
20260901132905 69 113 0.0 0.0 0.00 0.92 0.92 98 1019.5
20260901132400 69 113 0.0 0.0 0.00 0.92 0.92 98 1019.7
20260901131859 69 118 0.0 0.0 0.00 0.92 0.92 98 1019.6
20260901131358 69 113 0.0 0.0 0.00 0.92 0.92 98 1019.5
20260901130854 69 103 0.0 0.0 0.00 0.92 0.92 98 1019.4
20260901130348 69 113 0.0 0.0 0.00 0.92 0.92 98 1019.5
20260901125846 69 113 0.0 0.0 0.00 0.92 0.92 98 1019.5
20260901125345 69 121 0.0 0.0 0.00 0.92 0.92 98 1019.4
20260901124840 69 116 0.0 0.0 0.00 0.92 0.92 98 1019.3
20260901124336 69 119 0.0 0.0 0.00 0.92 0.92 98 1019.1
20260901123835 69 111 0.0 0.0 0.00 0.92 0.92 98 1019.7
20260901123330 69 124 0.0 0.0 0.00 0.92 0.92 98 1019.6
20260901122829 69 113 0.0 0.0 0.00 0.92 0.92 98 1019.6
20260901122324 69 119 0.0 0.0 0.00 0.92 0.92 98 1019.6
20260901121822 69 111 0.0 0.0 0.00 0.92 0.92 98 1019.5
20260901121318 68 115 0.0 0.0 0.00 0.92 0.92 98 1019.5
20260901120813 68 123 0.0 0.0 0.00 0.92 0.92 98 1019.6
20260901120307 68 113 0.0 0.0 0.00 0.92 0.92 98 1019.8
20260901115803 68 110 0.0 0.0 0.07 0.92 0.92 98 1019.8
20260901115258 68 114 0.0 0.0 0.07 0.92 0.92 98 1019.8
20260901114755 68 107 0.0 0.0 0.00 0.91 0.91 98 1019.9
20260901114250 68 107 0.0 0.0 0.00 0.91 0.91 98 1019.9
20260901113748 68 113 0.0 0.0 0.00 0.91 0.91 98 1019.7
20260901113243 68 95 0.0 0.0 0.00 0.91 0.91 98 1019.5
20260901112738 68 125 0.0 0.0 0.00 0.91 0.91 98 1019.3
20260901112237 68 125 0.0 0.0 0.00 0.91 0.91 98 1019.3
20260901111733 68 115 0.0 0.0 0.00 0.91 0.91 98 1019.3
20260901111232 68 121 0.0 0.0 0.00 0.91 0.91 98 1019.5
20260901110726 68 113 0.0 0.0 0.00 0.91 0.91 98 1019.9
20260901110221 68 113 0.0 0.0 0.00 0.91 0.91 98 1019.8
20260901105718 68 124 0.0 0.0 0.00 0.91 0.91 98 1019.7
20260901105217 68 113 0.0 0.0 0.00 0.91 0.91 98 1020.1
20260901104713 68 113 0.0 0.0 0.00 0.91 0.91 98 1019.8
20260901104209 68 120 0.0 0.0 0.00 0.91 0.91 98 1019.6
20260901103708 68 107 0.0 0.0 0.00 0.91 0.91 98 1019.8
20260901103203 68 113 0.0 0.0 0.00 0.91 0.91 98 1019.9
20260901102658 68 113 0.0 0.0 0.00 0.91 0.91 98 1019.8
20260901102157 68 100 0.0 0.0 0.00 0.91 0.91 98 1019.6
20260901101653 68 113 0.0 0.0 0.00 0.91 0.91 98 1019.5
20260901101153 68 107 0.0 0.0 0.00 0.91 0.91 98 1019.6
20260901100647 68 113 0.0 0.0 0.00 0.91 0.91 98 1019.2
20260901100142 68 123 0.0 0.0 0.00 0.91 0.91 98 1019.4
20260901095640 68 125 0.0 0.0 0.00 0.91 0.91 98 1019.5
20260901095138 68 102 0.0 0.0 0.00 0.91 0.91 98 1019.6
20260901094633 68 118 0.0 0.0 0.00 0.91 0.91 98 1019.6
20260901094133 68 117 0.0 0.0 0.00 0.91 0.91 97 1019.6
20260901093628 68 111 0.0 0.0 0.00 0.91 0.91 97 1019.5
20260901093127 67 119 0.0 0.0 0.00 0.91 0.91 97 1019.6
20260901092623 67 126 1.0 1.0 0.00 0.91 0.91 97 1019.7
20260901092119 67 127 1.0 1.0 0.00 0.91 0.91 97 1019.6
20260901091614 67 123 0.0 1.0 0.00 0.91 0.91 97 1019.6
20260901091109 67 119 0.0 0.0 0.00 0.91 0.91 97 1019.7
20260901090609 68 113 0.0 0.0 0.00 0.91 0.91 97 1019.4
20260901090105 67 115 0.0 0.0 0.00 0.91 0.91 97 1019.6
20260901085600 67 117 0.0 0.0 0.00 0.91 0.91 97 1019.8
20260901085056 67 113 0.0 0.0 0.00 0.91 0.91 97 1019.8
20260901084552 67 113 0.0 0.0 0.00 0.91 0.91 97 1019.7
20260901084048 67 112 0.0 0.0 0.00 0.91 0.91 97 1019.8
20260901083548 67 113 0.0 0.0 0.00 0.91 0.91 97 1019.9
20260901083046 67 120 0.0 0.0 0.00 0.91 0.91 97 1020.0
20260901082541 67 113 0.0 0.0 0.00 0.91 0.91 97 1019.9
20260901082037 67 113 0.0 0.0 0.00 0.91 0.91 97 1020.0